Date String (YYYY-MM-DD hh:mm:ss) UTC,Instrument flags,Ambient pressure (hPa),Sample flow (lpm),Bypass flow (lpm),Sample temperature (°C),Ambient temperature (°C),ASC tube jacket temperature (°C),LED temperature (°C),Box temperature (°C),Sample RH (%),Span deviation,Mass concentration (μg/m³),Mass concentration (μg/m³),Mass concentration (μg/m³)
DateTimeUTC,F1_M11,P_M11,Q1_M11,Q2_M11,T1_M11,T2_M11,T3_M11,T4_M11,T5_M11,U1_M11,ZSPAN_M11,X0_M11,X2_M11,X1_M11
2021-11-19 21:00:00,,0822.9,5.01,0.00,26.8,25.9,00.0,35.6,28.6,10.6,0000.0,0006.26,0003.53,0003.17
2021-11-19 21:01:00,,0822.8,4.99,0.00,26.8,25.9,00.0,35.6,28.6,10.5,0000.0,0006.79,0003.55,0003.20
2021-11-19 21:02:00,,0822.8,5.00,0.00,26.8,26.0,00.0,35.6,28.7,10.5,0000.0,0006.85,0003.58,0003.24
2021-11-19 21:03:00,,0822.8,5.00,0.00,26.8,26.0,00.0,35.7,28.6,10.5,0000.0,0006.75,0003.59,0003.29
2021-11-19 21:04:00,,0822.9,4.99,0.00,26.9,26.0,00.0,35.7,28.6,10.5,0000.0,0006.75,0003.65,0003.34
2021-11-19 21:05:00,,0822.7,4.99,0.00,26.9,26.0,00.0,35.7,28.7,10.5,0000.0,0006.74,0003.68,0003.39
2021-11-19 21:06:00,,0822.7,5.01,0.00,26.9,26.0,00.0,35.7,28.7,10.5,0000.0,0006.79,0003.71,0003.41
2021-11-19 21:07:00,,0822.6,5.01,0.00,26.9,26.0,00.0,35.7,28.7,10.3,0000.0,0006.69,0003.73,0003.42
2021-11-19 21:08:00,,0822.6,5.00,0.00,26.9,26.1,00.0,35.8,28.8,10.3,0000.0,0006.59,0003.72,0003.42
2021-11-19 21:09:00,,0822.6,4.99,0.00,26.9,26.1,00.0,35.8,28.7,10.3,0000.0,0006.71,0003.74,0003.43
2021-11-19 21:10:00,,0822.5,4.99,0.00,26.9,26.2,00.0,35.8,28.8,10.3,0000.0,0006.68,0003.73,0003.42
2021-11-19 21:11:00,,0822.6,5.01,0.00,27.0,26.2,00.0,35.8,28.8,10.2,0000.0,0006.68,0003.72,0003.40
2021-11-19 21:12:00,,0822.6,5.00,0.00,27.0,26.2,00.0,35.8,28.8,10.2,0000.0,0006.85,0003.69,0003.38
2021-11-19 21:13:00,,0822.4,5.00,0.00,27.0,26.2,00.0,35.8,28.8,10.3,0000.0,0006.77,0003.69,0003.38
2021-11-19 21:14:00,,0822.4,4.99,0.00,27.0,26.2,00.0,35.9,28.8,10.3,0000.0,0006.84,0003.70,0003.37
2021-11-19 21:15:00,,0822.5,5.01,0.00,27.0,26.3,00.0,35.9,28.8,10.3,0000.0,0006.89,0003.68,0003.37
2021-11-19 21:16:00,,0822.6,5.02,0.00,27.0,26.2,00.0,35.9,28.8,10.3,0000.0,0006.95,0003.67,0003.35
2021-11-19 21:17:00,,0822.7,5.00,0.00,27.0,26.2,00.0,35.9,28.8,10.3,0000.0,0007.27,0003.63,0003.33
2021-11-19 21:18:00,,0822.7,5.00,0.00,27.0,26.2,00.0,35.9,28.9,10.3,0000.0,0007.13,0003.60,0003.32
2021-11-19 21:19:00,,0822.7,5.00,0.00,27.1,26.3,00.0,36.0,28.9,10.4,0000.0,0007.17,0003.62,0003.33
2021-11-19 21:20:00,,0822.7,5.00,0.00,27.1,26.3,00.0,36.0,28.9,10.3,0000.0,0007.22,0003.60,0003.31
2021-11-19 21:21:00,,0822.8,4.99,0.00,27.1,26.3,00.0,36.0,29.0,10.4,0000.0,0007.23,0003.58,0003.28
2021-11-19 21:22:00,,0822.6,5.00,0.00,27.1,26.4,00.0,36.0,29.0,10.3,0000.0,0007.11,0003.55,0003.27
2021-11-19 21:23:00,,0822.7,5.01,0.00,27.1,26.4,00.0,36.0,29.0,10.0,0000.0,0007.14,0003.56,0003.27
2021-11-19 21:24:00,,0822.7,4.99,0.00,27.1,26.4,00.0,36.0,29.0,10.0,0000.0,0006.74,0003.56,0003.27
2021-11-19 21:25:00,,0822.7,5.00,0.00,27.2,26.4,00.0,36.1,29.0,10.0,0000.0,0006.85,0003.58,0003.27
2021-11-19 21:26:00,,0822.6,5.00,0.00,27.2,26.4,00.0,36.1,29.0,10.0,0000.0,0007.14,0003.56,0003.25
2021-11-19 21:27:00,,0822.5,4.99,0.00,27.2,26.4,00.0,36.1,29.0,10.0,0000.0,0008.32,0003.57,0003.26
2021-11-19 21:28:00,,0822.5,4.99,0.00,27.2,26.5,00.0,36.1,29.0,10.0,0000.0,0008.21,0003.61,0003.29
2021-11-19 21:29:00,,0822.4,5.00,0.00,27.2,26.5,00.0,36.1,29.1,09.9,0000.0,0008.25,0003.63,0003.31
2021-11-19 21:30:00,,0822.5,4.99,0.00,27.2,26.5,00.0,36.1,29.1,09.9,0000.0,0008.34,0003.66,0003.33
2021-11-19 21:31:00,,0822.5,5.00,0.00,27.2,26.5,00.0,36.1,29.1,09.9,0000.0,0008.32,0003.71,0003.38
2021-11-19 21:32:00,,0822.4,5.01,0.00,27.2,26.5,00.0,36.2,29.1,09.9,0000.0,0008.30,0003.73,0003.42
2021-11-19 21:33:00,,0822.5,4.99,0.00,27.2,26.5,00.0,36.2,29.1,09.9,0000.0,0008.37,0003.78,0003.46
2021-11-19 21:34:00,,0822.4,5.01,0.00,27.2,26.5,00.0,36.2,29.1,09.9,0000.0,0008.59,0003.82,0003.51
2021-11-19 21:35:00,,0822.4,4.99,0.00,27.2,26.5,00.0,36.2,29.1,09.9,0000.0,0008.64,0003.84,0003.54
2021-11-19 21:36:00,,0822.4,5.01,0.00,27.2,26.5,00.0,36.2,29.1,09.8,0000.0,0008.58,0003.82,0003.55
2021-11-19 21:37:00,,0822.4,5.00,0.00,27.2,26.5,00.0,36.2,29.1,09.8,0000.0,0008.42,0003.83,0003.56
2021-11-19 21:38:00,,0822.4,5.00,0.00,27.3,26.5,00.0,36.2,29.2,09.8,0000.0,0007.50,0003.89,0003.59
2021-11-19 21:39:00,,0822.3,5.00,0.00,27.3,26.5,00.0,36.2,29.2,09.8,0000.0,0007.27,0003.90,0003.60
2021-11-19 21:40:00,,0822.5,5.00,0.00,27.3,26.5,00.0,36.2,29.1,09.8,0000.0,0007.49,0003.94,0003.62
2021-11-19 21:41:00,,0822.5,5.00,0.00,27.3,26.5,00.0,36.2,29.1,09.8,0000.0,0007.64,0003.97,0003.65
2021-11-19 21:42:00,,0822.5,5.01,0.00,27.3,26.5,00.0,36.2,29.1,09.8,0000.0,0007.91,0003.98,0003.67
2021-11-19 21:43:00,,0822.4,4.99,0.00,27.3,26.5,00.0,36.2,29.1,09.8,0001.1,0007.91,0004.00,0003.69
2021-11-19 21:44:00,,0822.3,5.01,0.00,27.3,26.5,00.0,36.2,29.1,09.7,0003.5,0008.02,0004.03,0003.69
2021-11-19 21:45:00,,0822.3,4.99,0.00,27.3,26.5,00.0,36.3,29.1,09.7,0000.0,0007.70,0004.05,0003.70
2021-11-19 21:46:00,,0822.4,5.00,0.00,27.3,26.5,00.0,36.3,29.2,09.7,0000.0,0007.44,0004.07,0003.69
2021-11-19 21:47:00,,0822.4,5.02,0.00,27.3,26.5,00.0,36.3,29.2,09.7,0000.0,0007.56,0004.10,0003.70
2021-11-19 21:48:00,,0822.4,4.98,0.00,27.3,26.5,00.0,36.3,29.2,09.7,0000.0,0007.71,0004.15,0003.71
2021-11-19 21:49:00,,0822.5,5.01,0.00,27.3,26.5,00.0,36.3,29.2,09.7,0000.0,0007.70,0004.15,0003.72
2021-11-19 21:50:00,,0822.4,5.00,0.00,27.3,26.5,00.0,36.3,29.2,09.7,0000.0,0007.85,0004.15,0003.71
2021-11-19 21:51:00,,0822.4,5.00,0.00,27.3,26.5,00.0,36.3,29.2,09.7,0000.0,0007.79,0004.16,0003.71
2021-11-19 21:52:00,,0822.4,5.01,0.00,27.3,26.5,00.0,36.3,29.2,09.7,0000.0,0007.72,0004.16,0003.70
2021-11-19 21:53:00,,0822.5,4.99,0.00,27.3,26.5,00.0,36.3,29.2,09.7,0000.0,0007.39,0004.17,0003.71
2021-11-19 21:54:00,,0822.6,5.01,0.00,27.3,26.5,00.0,36.3,29.2,09.8,0000.0,0007.44,0004.19,0003.73
2021-11-19 21:55:00,,0822.6,5.00,0.00,27.4,26.6,00.0,36.3,29.2,09.7,0000.0,0007.36,0004.19,0003.75
2021-11-19 21:56:00,,0822.6,5.01,0.00,27.4,26.6,00.0,36.3,29.1,09.7,0000.0,0007.64,0004.21,0003.77
2021-11-19 21:57:00,,0822.6,5.01,0.00,27.4,26.5,00.0,36.3,29.2,09.7,0000.0,0007.85,0004.26,0003.79
2021-11-19 21:58:00,,0822.5,5.00,0.00,27.4,26.6,00.0,36.3,29.2,09.8,0000.0,0007.86,0004.28,0003.82
2021-11-19 21:59:00,,0822.6,5.00,0.00,27.4,26.6,00.0,36.3,29.2,09.7,0000.0,0007.74,0004.27,0003.85
